Satellite-Ground Cal/Val Region Overpasses Predictions

Prediction of Satellite NPP Overpassing Cal/Val Region: PacNW

Region Location: (Latitude: 10.00, Longitude: 139.50) to (Latitude: 22.70, Longitude: 165.60).

Table of predicted overpasses for the next 14.0 days since TLE Epoch: 12/27/2019
Interval Starting Time Starting Location Ending Time Ending Location
1 12/28/2019 03:04:22 ( 10.01, 153.57) 12/28/2019 03:07:58 ( 22.70, 150.55)
2 12/28/2019 15:36:15 ( 22.68, 150.80) 12/28/2019 15:39:50 ( 10.06, 147.80)
3 12/29/2019 02:45:20 ( 10.02, 158.33) 12/29/2019 02:48:55 ( 22.64, 155.33)
4 12/29/2019 15:17:12 ( 22.67, 155.56) 12/29/2019 15:20:47 ( 10.05, 152.56)
5 12/30/2019 02:26:17 ( 10.03, 163.09) 12/30/2019 02:29:52 ( 22.65, 160.08)
6 12/30/2019 14:58:10 ( 22.66, 160.31) 12/30/2019 15:01:45 ( 10.04, 157.31)
7 12/31/2019 02:09:58 ( 19.61, 165.60) 12/31/2019 02:10:50 ( 22.66, 164.84)
8 12/31/2019 03:48:45 ( 10.04, 142.47) 12/31/2019 03:52:17 ( 22.49, 139.51)
9 12/31/2019 14:39:07 ( 22.66, 165.07) 12/31/2019 14:42:42 ( 10.04, 162.07)
10 12/31/2019 16:20:37 ( 22.65, 139.70) 12/31/2019 16:20:50 ( 21.89, 139.51)
11 01/01/2020 03:29:42 ( 10.05, 147.23) 01/01/2020 03:33:17 ( 22.67, 144.22)
12 01/01/2020 16:01:35 ( 22.64, 144.45) 01/01/2020 16:05:10 ( 10.02, 141.45)
13 01/02/2020 03:10:40 ( 10.06, 151.98) 01/02/2020 03:14:15 ( 22.68, 148.98)
14 01/02/2020 15:42:31 ( 22.69, 149.23) 01/02/2020 15:46:07 ( 10.01, 146.21)
15 01/03/2020 02:51:36 ( 10.01, 156.75) 01/03/2020 02:55:12 ( 22.69, 153.74)
16 01/03/2020 15:23:29 ( 22.69, 153.98) 01/03/2020 15:27:05 ( 10.01, 150.97)
17 01/04/2020 02:32:34 ( 10.01, 161.51) 01/04/2020 02:36:10 ( 22.70, 158.50)
18 01/04/2020 15:04:27 ( 22.68, 158.74) 01/04/2020 15:08:03 ( 10.00, 155.73)
19 01/05/2020 02:14:21 ( 12.96, 165.60) 01/05/2020 02:17:06 ( 22.65, 163.27)
20 01/05/2020 03:55:01 ( 10.03, 140.89) 01/05/2020 03:56:43 ( 16.02, 139.50)
21 01/05/2020 14:45:24 ( 22.67, 163.50) 01/05/2020 14:48:59 ( 10.05, 160.50)
22 01/06/2020 03:35:59 ( 10.04, 145.65) 01/06/2020 03:39:34 ( 22.66, 142.65)
23 01/06/2020 14:29:32 ( 11.51, 165.59) 01/06/2020 14:29:57 ( 10.05, 165.26)
24 01/06/2020 16:07:52 ( 22.66, 142.88) 01/06/2020 16:11:27 ( 10.04, 139.88)
25 01/07/2020 03:16:56 ( 10.05, 150.41) 01/07/2020 03:20:31 ( 22.67, 147.41)
26 01/07/2020 15:48:49 ( 22.65, 147.64) 01/07/2020 15:52:24 ( 10.03, 144.64)
27 01/08/2020 02:57:54 ( 10.06, 155.17) 01/08/2020 03:01:29 ( 22.68, 152.17)
28 01/08/2020 15:29:46 ( 22.70, 152.41) 01/08/2020 15:33:22 ( 10.02, 149.40)
29 01/09/2020 02:38:50 ( 10.01, 159.94) 01/09/2020 02:42:26 ( 22.69, 156.92)
30 01/09/2020 15:10:43 ( 22.69, 157.17) 01/09/2020 15:14:19 ( 10.01, 154.16)
31 01/10/2020 02:19:48 ( 10.02, 164.70) 01/10/2020 02:23:24 ( 22.70, 161.68)


NCC Satellite Cal/Val Overpasses Prediction Service
